NOAA 19 (33591 NORAD) Tracking and Keplerian Element Data

This shows tracking and keplerian element data for the satellite.

Feedback or suggestion? Click here.




ElementValue
Catalog33591
NameNOAA 19
Epoch Orbit76959
Epoch Day13.15952372
Epoch Year2024
RAAN67.1512
Inclination99.072
Eccentricity0.0013981
Argument of Perigee16.0074
Mean Anonmoly344.1536
Mean Motion14.12904555
Decay Rate2.97E-06
L11 33591U 09005A 24013.15952372 .00000297 00000+0 18414-3 0 9997
L22 33591 99.0720 67.1512 0013981 16.0074 344.1536 14.12904555769590



Live tracking and technical data element details for NOAA 19 (NORAD 33591). NOAA 19 can be tracked NOW for your location showing map with azimuth and elevation plus other details from your city location.







IsCatalogInMostPopularTable: catalog: 33591, numindb: 1970
Update: records affected: 1



GetName: 33591 NOAA 19

Hit Count: updated at: Sat, 20 Apr 2024 10:45:01 GMT